Погода в Пшичо

Россия / Республика Адыгея     45°04′05″N   40°10′31″E
темп.,
°C
ветер,
м/с
пор.,
м/с
влажн.,
%
обл.,
%
осадки,
мм/ч
давл.,
гПа
погр.,
м
4 августа, ср
ср400:00+25сз37540 0.0 1013146
03:00+22юз346915 0.0 101467
06:00+22зсз23746 0.0 101478
09:00+29ссз22515 0.0 1014735
12:00+35ссв21315 0.0 10131867
15:00+37св232348 0.0 10123900
18:00+29ююв91047100 0.2 1012755
21:00+24вюв117251 2.6 101419
5 августа, чт
чт500:00+21вюв33780 0.1 101448
03:00+20вюв33812 0.6 101447
06:00+21в23810 0.0 101470
09:00+28в4550100 0.0 1014693
12:00+34в55330 0.0 10121670
15:00+36всв542721 0.0 10102827
18:00+35в662947 0.1 10091866
21:00+27в47500 0.2 1010124
6 августа, пт
пт600:00+25вюв412540 0.0 1009258
03:00+25в513490 0.0 1008351
06:00+22вюв25620 0.0 1008149
09:00+30вюв34440 0.0 1008684
12:00+36вюв57280 0.0 10061750
15:00+39в77220 0.0 10032517
18:00+37вюв7724100 0.0 10032234
21:00+29в411380 0.0 1003193
7 августа, сб
сб700:00+29вюв81536100 0.0 1003590
03:00+26в5114479 0.0 1003366
06:00+26в51046100 0.0 1003402
09:00+29в4443100 0.0 1004540
12:00+32вюв2337100 0.0 1004836
15:00+37всв552571 0.1 10031618
18:00+35ююв3231100 0.0 1004784
21:00+27ююв61256100 0.0 1006296
8 августа, вс
вс800:00+24с226397 0.0 100621
03:00+24ссв2263100 0.1 100815
06:00+24юв116222 0.0 100921
09:00+30в3245100 0.0 1009691
12:00+33зсз3236100 0.0 10091322
15:00+36зсз4629100 0.1 10082621
18:00+22юв478459 9.4 1011149
21:00+21ююв379447 11.4 1012126